Location: Kampernieuwstad
(52.5135°N, 5.8742°E)
Time: 13:26:43
(UTC+00:00)

Helios 1A - Pass Details

Date: 15 May 2026
Orbit: 540 x 559 km, 98.2° (Epoch: 11 June)

Event Time Altitude Azimuth Distance (km) Brightness Sun altitude
Rises 22:10:50 0° 15° (NNE) 2,719 7.3 -16.3°
Reaches altitude 10° 22:12:58 10° 17° (NNE) 1,819 6.3 -16.4°
Maximum altitude 22:16:54 81° 105° (ESE) 555 2.7 -16.6°
Enters shadow 22:18:38 32° 189° (S) 945 3.5 -16.6°
